• en Belgique
  • Liste des pays
  • À 7 jours
  • Température de l'eau
  • Carte satellitaire
  • Carte météo
  • Widgets météo
  • user-avatar
    Se connecter

    Météo par heure à Ans

    Ce jour, 15 Novembre, Jeudi

    Heure Température Précipitation Vent Pression Humidité
    00:00 +5°C° 0 mm 2 m/s 754 mmHg 80%
    01:00 +5°C° 0 mm 2 m/s 754 mmHg 79%
    02:00 +5°C° 0 mm 2 m/s 754 mmHg 79%
    03:00 +5°C° 0 mm 2 m/s 754 mmHg 78%
    04:00 +5°C° 0 mm 2 m/s 754 mmHg 78%
    05:00 +5°C° 0 mm 2 m/s 754 mmHg 78%
    06:00 +5°C° 0 mm 2 m/s 754 mmHg 77%
    07:00 +6°C° 0 mm 2 m/s 754 mmHg 74%
    08:00 +8°C° 0 mm 2 m/s 754 mmHg 71%
    09:00 +9°C° 0 mm 2 m/s 754 mmHg 68%
    10:00 +10°C° 0 mm 2 m/s 754 mmHg 64%
    11:00 +13°C° 0 mm 2 m/s 754 mmHg 60%
    12:00 +14°C° 0 mm 1 m/s 754 mmHg 57%
    13:00 +13°C° 0 mm 1 m/s 753 mmHg 61%
    14:00 +13°C° 0 mm 1 m/s 753 mmHg 65%
    15:00 +12°C° 0 mm 1 m/s 753 mmHg 69%
    16:00 +10°C° 0 mm 2 m/s 753 mmHg 72%
    17:00 +8°C° 0 mm 2 m/s 753 mmHg 74%
    18:00 +7°C° 0 mm 2 m/s 753 mmHg 77%
    19:00 +6°C° 0 mm 2 m/s 753 mmHg 77%
    20:00 +6°C° 0 mm 2 m/s 754 mmHg 76%
    21:00 +6°C° 0 mm 2 m/s 754 mmHg 76%
    22:00 +5°C° 0 mm 2 m/s 754 mmHg 76%
    23:00 +5°C° 0 mm 2 m/s 754 mmHg 77%

    Demain, 16 Novembre, Vendredi

    Heure Température Précipitation Vent Pression Humidité
    00:00 +5°C° 0 mm 2 m/s 754 mmHg 77%
    01:00 +6°C° 0 mm 1 m/s 754 mmHg 77%
    02:00 +6°C° 0 mm 1 m/s 754 mmHg 77%
    03:00 +5°C° 0 mm 1 m/s 754 mmHg 77%
    04:00 +5°C° 0 mm 1 m/s 754 mmHg 77%
    05:00 +4°C° 0 mm 2 m/s 754 mmHg 76%
    06:00 +4°C° 0 mm 2 m/s 755 mmHg 76%
    07:00 +5°C° 0 mm 2 m/s 755 mmHg 72%
    08:00 +6°C° 0 mm 2 m/s 755 mmHg 69%
    09:00 +8°C° 0 mm 2 m/s 755 mmHg 65%
    10:00 +9°C° 0 mm 2 m/s 755 mmHg 61%
    11:00 +10°C° 0 mm 3 m/s 755 mmHg 57%
    12:00 +12°C° 0 mm 3 m/s 755 mmHg 53%
    13:00 +11°C° 0 mm 3 m/s 755 mmHg 55%
    14:00 +11°C° 0 mm 3 m/s 755 mmHg 58%
    15:00 +10°C° 0 mm 3 m/s 755 mmHg 60%
    16:00 +9°C° 0 mm 3 m/s 755 mmHg 61%
    17:00 +8°C° 0 mm 3 m/s 755 mmHg 62%
    18:00 +7°C° 0 mm 3 m/s 755 mmHg 62%
    19:00 +5°C° 0 mm 3 m/s 756 mmHg 63%
    20:00 +5°C° 0 mm 4 m/s 756 mmHg 63%
    21:00 +4°C° 0 mm 4 m/s 756 mmHg 64%
    22:00 +4°C° 0 mm 3 m/s 756 mmHg 66%
    23:00 +4°C° 0 mm 3 m/s 756 mmHg 67%

    Après-demain, 17 Novembre, Samedi

    Heure Température Précipitation Vent Pression Humidité
    00:00 +4°C° 0 mm 3 m/s 756 mmHg 69%
    01:00 +3°C° 0 mm 3 m/s 756 mmHg 71%
    02:00 +3°C° 0 mm 3 m/s 756 mmHg 73%
    03:00 +3°C° 0 mm 3 m/s 756 mmHg 75%
    04:00 +3°C° 0 mm 3 m/s 755 mmHg 76%
    05:00 +2°C° 0 mm 3 m/s 755 mmHg 76%
    06:00 +2°C° 0 mm 3 m/s 755 mmHg 76%
    07:00 +3°C° 0 mm 4 m/s 755 mmHg 72%
    08:00 +4°C° 0 mm 4 m/s 756 mmHg 68%
    09:00 +5°C° 0 mm 4 m/s 756 mmHg 64%
    10:00 +6°C° 0 mm 5 m/s 756 mmHg 60%
    11:00 +8°C° 0 mm 5 m/s 755 mmHg 56%
    12:00 +9°C° 0 mm 5 m/s 755 mmHg 52%
    13:00 +8°C° 0 mm 5 m/s 755 mmHg 54%
    14:00 +8°C° 0 mm 5 m/s 755 mmHg 56%
    15:00 +7°C° 0 mm 4 m/s 755 mmHg 57%
    16:00 +7°C° 0 mm 5 m/s 755 mmHg 58%
    17:00 +6°C° 0 mm 5 m/s 755 mmHg 60%
    18:00 +5°C° 0 mm 5 m/s 755 mmHg 61%
    19:00 +5°C° 0 mm 4 m/s 755 mmHg 61%
    20:00 +4°C° 0 mm 4 m/s 755 mmHg 60%
    21:00 +4°C° 0 mm 4 m/s 755 mmHg 60%
    22:00 +4°C° 0 mm 4 m/s 755 mmHg 61%
    23:00 +3°C° 0 mm 4 m/s 755 mmHg 61%

    18 Novembre, Dimanche

    Heure Température Précipitation Vent Pression Humidité
    00:00 +3°C° 0 mm 4 m/s 755 mmHg 62%
    01:00 +3°C° 0 mm 4 m/s 754 mmHg 61%
    02:00 +1°C° 0 mm 4 m/s 754 mmHg 61%
    03:00 +1°C° 0 mm 4 m/s 754 mmHg 60%
    04:00 0°C° 0 mm 4 m/s 754 mmHg 59%
    05:00 0°C° 0 mm 4 m/s 754 mmHg 58%
    06:00 +1°C° 0 mm 3 m/s 754 mmHg 57%
    07:00 +1°C° 0 mm 4 m/s 754 mmHg 54%
    08:00 +3°C° 0 mm 4 m/s 754 mmHg 51%
    09:00 +3°C° 0 mm 5 m/s 754 mmHg 48%
    10:00 +5°C° 0 mm 5 m/s 754 mmHg 47%
    11:00 +6°C° 0 mm 5 m/s 753 mmHg 46%
    12:00 +7°C° 0 mm 5 m/s 753 mmHg 45%
    13:00 +7°C° 0 mm 5 m/s 753 mmHg 47%
    14:00 +6°C° 0 mm 5 m/s 752 mmHg 50%
    15:00 +6°C° 0 mm 4 m/s 752 mmHg 52%
    16:00 +5°C° 0 mm 4 m/s 752 mmHg 52%
    17:00 +4°C° 0 mm 4 m/s 752 mmHg 53%
    18:00 +3°C° 0 mm 4 m/s 752 mmHg 54%
    19:00 +3°C° 0 mm 4 m/s 752 mmHg 52%
    20:00 +3°C° 0 mm 4 m/s 752 mmHg 51%
    21:00 +1°C° 0 mm 4 m/s 752 mmHg 50%
    22:00 +1°C° 0 mm 4 m/s 752 mmHg 53%
    23:00 +1°C° 0 mm 4 m/s 752 mmHg 56%

    19 Novembre, Lundi

    Heure Température Précipitation Vent Pression Humidité
    00:00 0°C° 0 mm 4 m/s 752 mmHg 59%
    01:00 0°C° 0 mm 4 m/s 751 mmHg 66%
    02:00 0°C° 0 mm 5 m/s 751 mmHg 74%
    03:00 0°C° 0 mm 5 m/s 751 mmHg 81%
    04:00 0°C° 0 mm 5 m/s 751 mmHg 82%
    05:00 0°C° 0 mm 5 m/s 751 mmHg 83%
    06:00 0°C° 0 mm 5 m/s 751 mmHg 83%
    07:00 0°C° 0 mm 5 m/s 751 mmHg 80%
    08:00 +1°C° 0 mm 6 m/s 751 mmHg 77%
    09:00 +1°C° 0 mm 6 m/s 751 mmHg 73%
    10:00 +2°C° 0 mm 6 m/s 750 mmHg 69%
    11:00 +3°C° 0 mm 6 m/s 750 mmHg 64%
    12:00 +4°C° 0 mm 6 m/s 750 mmHg 60%
    13:00 +4°C° 0 mm 6 m/s 749 mmHg 61%
    14:00 +3°C° 0 mm 5 m/s 749 mmHg 63%
    15:00 +3°C° 0 mm 5 m/s 749 mmHg 64%
    16:00 +3°C° 0 mm 5 m/s 749 mmHg 69%
    17:00 +2°C° 0 mm 5 m/s 749 mmHg 73%
    18:00 +2°C° 0 mm 5 m/s 749 mmHg 78%
    19:00 +1°C° 0 mm 5 m/s 748 mmHg 79%
    20:00 +1°C° 0 mm 5 m/s 748 mmHg 81%
    21:00 +1°C° 0 mm 4 m/s 748 mmHg 82%
    22:00 +1°C° 0 mm 4 m/s 748 mmHg 84%
    23:00 0°C° 0 mm 4 m/s 748 mmHg 86%

    20 Novembre, Mardi

    Heure Température Précipitation Vent Pression Humidité
    00:00 0°C° 0 mm 4 m/s 748 mmHg 87%
    01:00 0°C° 0 mm 4 m/s 747 mmHg 86%
    02:00 0°C° 0 mm 4 m/s 747 mmHg 85%
    03:00 0°C° 0 mm 4 m/s 747 mmHg 85%
    04:00 0°C° 0 mm 4 m/s 747 mmHg 84%
    05:00 0°C° 0 mm 5 m/s 746 mmHg 84%
    06:00 0°C° 0 mm 5 m/s 746 mmHg 83%
    07:00 0°C° 0 mm 5 m/s 746 mmHg 81%
    08:00 0°C° 0 mm 5 m/s 746 mmHg 78%
    09:00 0°C° 0 mm 5 m/s 746 mmHg 75%
    10:00 +1°C° 0 mm 5 m/s 746 mmHg 72%
    11:00 +2°C° 0 mm 5 m/s 745 mmHg 69%
    12:00 +2°C° 0 mm 6 m/s 745 mmHg 66%
    13:00 +2°C° 0 mm 5 m/s 745 mmHg 66%
    14:00 +1°C° 0 mm 5 m/s 745 mmHg 66%
    15:00 +1°C° 0 mm 5 m/s 744 mmHg 67%
    16:00 0°C° 0 mm 5 m/s 744 mmHg 71%
    17:00 0°C° 0 mm 5 m/s 744 mmHg 75%
    18:00 -1°C° 0 mm 4 m/s 744 mmHg 78%
    19:00 -2°C° 0 mm 4 m/s 744 mmHg 80%
    20:00 -2°C° 0 mm 4 m/s 744 mmHg 81%
    21:00 -1°C° 0 mm 3 m/s 744 mmHg 82%
    22:00 -2°C° 0 mm 3 m/s 744 mmHg 84%
    23:00 -2°C° 0 mm 3 m/s 744 mmHg 85%
    Voir plus